Location: Unspecified
(0.0000°N, 0.0000°E)
Time: 06:09:50
(UTC+00:00)

Vanguard 2 Rocket - Pass Details

Date: 04 October 2023
Orbit: 552 x 3312 km, 32.9° (Epoch: 06 December)

Event Time Altitude Azimuth Distance (km) Brightness Sun altitude
Rises 19:09:59 0° 286° (WNW) 6,520 12.5 -20.3°
Reaches altitude 10° 19:15:36 10° 277° (W) 5,062 11.8 -21.7°
Maximum altitude 19:26:44 31° 222° (SW) 2,653 9.6 -24.4°
Drops below altitude 10° 19:33:48 10° 162° (SSE) 3,142 9.5 -26.2°
Enters shadow 19:34:54 - 156° (SSE) 3,399 9.6 -26.5°
Sets 19:36:26 0° 150° (SSE) 3,798 - -26.8°
